Weather History for KIJD - April, 2014

Change the Weather History Date:

Sunday, April 13, 2014

  Actual Average (KBDL) Record (KBDL)
Temperature  
Mean Temperature 54 °F 49 °F  
Max Temperature 70 °F 60 °F 86 °F (1977)
Min Temperature 39 °F 38 °F 24 °F (1990)
Degree Days  
Heating Degree Days 10 17  
Month to date heating degree days 247  
Since 1 July heating degree days 5528  
Cooling Degree Days 0 0  
Month to date cooling degree days 0  
Year to date cooling degree days 0  
Growing Degree Days 4 (Base 50)    
Moisture  
Dew Point 42 °F    
Average Humidity 62    
Maximum Humidity 86    
Minimum Humidity 36    
Precipitation  
Precipitation 0.00 in 0.13 in 2.25 in (2004)
Month to date precipitation 1.65  
Year to date precipitation 11.39  
Snow  
Snow 0.00 in 0.10 in 1.80 in (1918)
Month to date snowfall 1.0  
Since 1 July snowfall 40.1  
Snow Depth -    
Sea Level Pressure  
Sea Level Pressure 30.14 in    
Wind  
Wind Speed 5 mph (South)    
Max Wind Speed 17 mph    
Max Gust Speed 23 mph    
Visibility 10 miles    
Events      
T = Trace of Precipitation, MM = Missing Value Source: NWS Daily Summary

Daily Weather History Graph

Daily Weather History Graph

Search for Another Location

Airport or City:

Trip Planner

Search our weather history database for the weather conditions in past years. The results will help you decide how hot, cold, wet, or windy it might be!

Date:

Astronomy

Apr. 13, 2014 Rise Set
Actual Time 6:11 AM EDT 7:27 PM EDT
Civil Twilight 5:43 AM EDT 7:56 PM EDT
Nautical Twilight 5:08 AM EDT 8:30 PM EDT
Astronomical Twilight 4:32 AM EDT 9:07 PM EDT
Moon 6:01 PM EDT (4/13) 5:10 AM EDT (4/13)
Length of Visible Light 14h 12m
Length of Day
13h 15m
Waxing Gibbous, 97% of the Moon is Illuminated
Apr 13
Waxing Gibbous
Apr 15
Full
Apr 22
Last Quarter
Apr 29
New
May 6
First Quarter

Hourly Weather History & Observations

Time (EDT) Temp. Windchill Dew Point Humidity Pressure Visibility Wind Dir Wind Speed Gust Speed Precip Events Conditions
12:52 AM 45.0 °F - 37.0 °F 74% 30.24 in 10.0 mi Calm Calm - N/A   Clear
1:52 AM 45.0 °F - 37.9 °F 76% 30.24 in 10.0 mi Calm Calm - N/A   Clear
2:52 AM 41.0 °F 39.0 °F 35.1 °F 79% 30.24 in 10.0 mi NE 3.5 mph - N/A   Clear
3:52 AM 41.0 °F - 37.0 °F 86% 30.23 in 10.0 mi Calm Calm - N/A   Clear
4:52 AM 42.1 °F - 37.0 °F 82% 30.23 in 10.0 mi Calm Calm - N/A   Clear
5:52 AM 39.9 °F - 36.0 °F 86% 30.23 in 10.0 mi Calm Calm - N/A   Scattered Clouds
6:52 AM 39.9 °F - 36.0 °F 86% 30.22 in 10.0 mi Calm Calm - N/A   Partly Cloudy
7:52 AM 46.0 °F - 39.0 °F 76% 30.22 in 10.0 mi Calm Calm - N/A   Partly Cloudy
8:52 AM 51.1 °F - 37.9 °F 61% 30.21 in 10.0 mi South 6.9 mph - N/A   Partly Cloudy
9:52 AM 55.0 °F - 39.9 °F 57% 30.20 in 10.0 mi Calm Calm - N/A   Overcast
10:52 AM 60.1 °F - 34.0 °F 38% 30.20 in 10.0 mi South 11.5 mph 18.4 mph 0.00 in   Mostly Cloudy
11:52 AM 61.0 °F - 34.0 °F 36% 30.18 in 10.0 mi SSE 9.2 mph - N/A   Overcast
12:52 PM 64.0 °F - 39.0 °F 40% 30.15 in 10.0 mi SSE 11.5 mph 21.9 mph N/A   Mostly Cloudy
1:08 PM 66.0 °F - 41.0 °F 40% 30.14 in 10.0 mi South 12.7 mph 19.6 mph N/A   Scattered Clouds
1:52 PM 66.9 °F - 46.0 °F 47% 30.12 in 10.0 mi South 17.3 mph 23.0 mph N/A   Clear
2:52 PM 69.1 °F - 50.0 °F 51% 30.09 in 10.0 mi SSE 11.5 mph - N/A   Clear
3:52 PM 69.1 °F - 50.0 °F 51% 30.05 in 10.0 mi SSE 12.7 mph - N/A   Clear
4:52 PM 70.0 °F - 51.1 °F 51% 30.03 in 10.0 mi South 10.4 mph - N/A   Clear
5:52 PM 69.1 °F - 50.0 °F 51% 30.03 in 10.0 mi South 13.8 mph - N/A   Clear
6:52 PM 66.0 °F - 50.0 °F 56% 30.04 in 10.0 mi SSW 10.4 mph 19.6 mph N/A   Clear
8:52 PM 62.1 °F - 46.9 °F 58% 30.05 in 10.0 mi SSW 12.7 mph 19.6 mph N/A   Clear
9:52 PM 61.0 °F - 48.9 °F 64% 30.05 in 10.0 mi SSW 8.1 mph - N/A   Clear
10:52 PM 62.1 °F - 51.1 °F 67% 30.05 in 10.0 mi SSW 8.1 mph - N/A   Clear
11:52 PM 62.1 °F - 52.0 °F 70% 30.04 in 10.0 mi SSW 12.7 mph 18.4 mph N/A   Clear